Content
SEND FEEDBACK

Daily
Averages
Monthly
Summary
United Kingdom

LONDON, ENGLAND


Home > Europe > United Kingdom > England
Elevation: 203 feet     Latitude: 51 09N     Longitude: 000 11W

WEATHER
 
SELECT A DAY
Number of Records: 294,441;   Date Range: 7/1/96 - 9/14/14
 
SHARE

PRINT THIS DATA

[ ← Previous Day ]
WEATHER ALMANAC - MAY 22, 2013
[ Next Day → ]
[ °C ]   °F
Weather ElementAverageHighLow
Temperature52.4 °F57.2 °F (1:20 pm)48.2 °F (2:50 am)
Dewpoint43.7 °F48.2 °F (12:50 am)33.8 °F (11:20 pm)
Humidity73.4 %93 % (2:50 am)51 % (7:20 pm)
Barometer30.07 in30.09 in (7:20 am)30.04 in (6:20 pm)
Wind Speed8.3 mph15 mph (3:20 pm)
Weather ElementAverage
Visibility5.8 mi
Wind DirectionWSW (259.6 °)

Weather ElementTotal
Precipitation---
Heating Degree Days12.3 (Base 65)
Growing Degree Days2.7 (Base 50)
Averaged from 47 records on May 22, 2013
WEATHER CONDITIONS BREAKOUT
WIND DIRECTION BREAKOUT
WEATHER BY HOUR - MAY 22, 2013
[ °C ]   °F
Local TimeTemperatureDewpointHumidityBarometerVisibilityWind DirectionWind SpeedGust SpeedPrecipitationEventsConditions
12:50 AM51.8 °F48.2 °F88 %30.06 in5.0 miNE (50°)5.8 mphOvercast
1:20 AM51.8 °F46.4 °F82 %30.06 in6.2 miNE (50°)5.8 mphOvercast
1:50 AM50.0 °F46.4 °F87 %30.06 in4.3 miNE (40°)8.1 mphOvercast
2:20 AM50.0 °F46.4 °F87 %30.06 in6.2 miNNE (30°)6.9 mphOvercast
2:50 AM48.2 °F46.4 °F93 %30.06 in5.0 miNNE (30°)4.6 mphOvercast
3:20 AM48.2 °F46.4 °F93 %30.06 in4.3 miNE (40°)3.5 mphRainLight Rain
3:50 AM48.2 °F46.4 °F93 %30.06 in6.2 miVariable2.3 mphOvercast
4:20 AM50.0 °F44.6 °F82 %30.06 in5.0 miVariable2.3 mphOvercast
4:50 AM50.0 °F46.4 °F87 %30.06 in3.7 miNW (320°)3.5 mphOvercast
5:20 AM50.0 °F46.4 °F87 %30.06 in5.0 miNW (320°)3.5 mphMostly Cloudy
5:50 AM50.0 °F46.4 °F87 %30.06 in5.0 miNW (320°)3.5 mphMostly Cloudy
6:20 AM50.0 °F44.6 °F82 %30.06 in6.2 miNW (320°)4.6 mphOvercast
6:50 AM50.0 °F44.6 °F82 %30.06 in6.2 miWNW (300°)4.6 mphOvercast
7:20 AM50.0 °F44.6 °F82 %30.09 in6.2 miWNW (300°)4.6 mphMostly Cloudy
7:50 AM50.0 °F44.6 °F82 %30.09 in6.2 miWest (280°)6.9 mphMostly Cloudy
8:20 AM50.0 °F44.6 °F82 %30.09 in6.2 miWNW (290°)5.8 mphMostly Cloudy
8:50 AM50.0 °F44.6 °F82 %30.09 in6.2 miWNW (290°)4.6 mphMostly Cloudy
9:20 AM50.0 °F44.6 °F82 %30.09 in6.2 miWNW (290°)5.8 mphMostly Cloudy
9:50 AM50.0 °F46.4 °F87 %30.09 in5.6 miWest (280°)5.8 mphMostly Cloudy
10:20 AM51.8 °F46.4 °F82 %30.09 in5.0 miWest (280°)5.8 mphMostly Cloudy
10:50 AM53.6 °F48.2 °F82 %30.09 in6.2 miWest (270°)5.8 mphMostly Cloudy
11:20 AM53.6 °F48.2 °F82 %30.09 in6.2 miWest (280°)6.9 mphMostly Cloudy
11:50 AM53.6 °F46.4 °F77 %30.09 in6.2 miNW (310°)9.2 mphMostly Cloudy
12:20 PM55.4 °F46.4 °F72 %30.09 in6.2 miNW (310°)10.4 mphMostly Cloudy
12:50 PM55.4 °F46.4 °F72 %30.09 in6.2 miNW (310°)8.1 mphMostly Cloudy
1:20 PM57.2 °F46.4 °F67 %30.09 in6.2 miNW (310°)10.4 mphMostly Cloudy
1:50 PM57.2 °F46.4 °F67 %30.09 in6.2 miWNW (300°)11.5 mphMostly Cloudy
2:20 PM57.2 °F46.4 °F67 %30.09 in6.2 miNW (320°)12.7 mphMostly Cloudy
2:50 PM55.4 °F46.4 °F72 %30.09 in6.2 miNW (320°)13.8 mphOvercast
3:20 PM55.4 °F46.4 °F72 %30.09 in6.2 miNW (320°)15.0 mphMostly Cloudy
3:50 PM55.4 °F46.4 °F72 %30.09 in6.2 miNW (320°)11.5 mphMostly Cloudy
4:20 PM55.4 °F44.6 °F67 %30.06 in6.2 miNW (310°)11.5 mphMostly Cloudy
4:50 PM55.4 °F44.6 °F67 %30.06 in6.2 miWNW (300°)12.7 mphMostly Cloudy
5:20 PM55.4 °F44.6 °F67 %30.06 in6.2 miNW (320°)9.2 mphMostly Cloudy
5:50 PM55.4 °F42.8 °F63 %30.06 in6.2 miNW (310°)9.2 mphMostly Cloudy
6:20 PM57.2 °F42.8 °F59 %30.04 in6.2 miWNW (300°)9.2 mphMostly Cloudy
6:50 PM57.2 °F41.0 °F55 %30.04 in6.2 miNW (320°)13.8 mphScattered Clouds
7:20 PM57.2 °F39.2 °F51 %30.04 in6.2 miNNW (330°)12.7 mphMostly Cloudy
7:50 PM55.4 °F39.2 °F54 %30.04 in6.2 miNW (310°)10.4 mphPartly Cloudy
8:20 PM53.6 °F37.4 °F54 %30.04 inNW (320°)9.2 mphClear
8:50 PM53.6 °F37.4 °F54 %30.04 inNNW (330°)12.7 mphClear
9:20 PM51.8 °F35.6 °F54 %30.04 inNW (310°)9.2 mphClear
9:50 PM50.0 °F35.6 °F58 %30.04 inWNW (300°)8.1 mphClear
10:20 PM50.0 °F35.6 °F58 %30.04 inNW (310°)10.4 mphClear
10:50 PM48.2 °F35.6 °F62 %30.04 inNW (310°)10.4 mphClear
11:20 PM48.2 °F33.8 °F58 %30.04 inNW (310°)13.8 mphClear
11:50 PM48.2 °F33.8 °F58 %30.04 inNW (310°)13.8 mphClear
Hourly data recorded from EGKK, located miles away from London, England







STORIES FROM OUR PARTNERS